Location: Wapato
(46.4478°N, 120.4212°W)
Time: 10:07:23
(UTC+00:00)

Injun/Solrad 3 - Pass Details

Date: 16 May 2026
Orbit: 867 x 989 km, 66.8° (Epoch: 10 June)

Event Time Altitude Azimuth Distance (km) Brightness Sun altitude
Rises 00:10:04 0° 225° (SW) 3,517 11.6 32.2°
Reaches altitude 10° 00:12:34 10° 229° (SW) 2,597 11.2 31.7°
Maximum altitude 00:18:32 60° 309° (NW) 1,069 9.2 30.7°
Drops below altitude 10° 00:24:45 10° 28° (NNE) 2,696 10.1 29.6°
Sets 00:27:24 0° 33° (NNE) 3,662 10.7 29.2°
